Regional Weather Roundup
Issued by NWS Mt. Holly, NJ

Home | Current Version | Previous Version | Text Only | Print | Product List | Glossary On
Versions: 1 2 3 4 5 6 7 8 9 10 11 12 13 14 15 16 17 18 19 20 21 22 23 24 25 26 27 28 29
000
ASUS41 KPHI 041012
RWRPHI

REGIONAL WEATHER ROUNDUP
NATIONAL WEATHER SERVICE MOUNT HOLLY NJ
500 AM EST SUN DEC 04 2016

NOTE:  "FAIR" INDICATES FEW OR NO CLOUDS BELOW 12,000 FEET WITH NO
SIGNIFICANT WEATHER AND/OR OBSTRUCTIONS TO VISIBILITY.

 * = STATION DOES NOT REPORT PRECIPITATION (E.G. RAIN, SNOW, ETC.)
        OR FOG.

NJZ015>026-041100-
SOUTHERN NEW JERSEY

CITY           SKY/WX    TMP DP  RH WIND       PRES   REMARKS
POMONA         CLOUDY    39  26  59 N7        30.22S WCI  34
WILDWOOD*      MOCLDY    44  26  49 N7        30.22F
MILLVILLE      CLOUDY    42  28  57 N5        30.22F
WRIGHTSTOWN    CLOUDY    39  25  56 NW6       30.19F
MOUNT HOLLY    CLOUDY    41  25  53 NW5       30.22F
TRENTON        CLOUDY    41  23  48 NW6       30.21S

$$
NJZ001>014-041100-
NORTHERN NEW JERSEY

CITY           SKY/WX    TMP DP  RH WIND       PRES   REMARKS
SUSSEX         MOCLDY    38  23  55 N8        30.20R WCI  32
ANDOVER*         N/A     37  22  54 N5        30.20R WCI  33
MORRISTOWN     CLOUDY    39  25  56 NW6       30.21R WCI  35
NEWARK         MOCLDY    41  23  48 NW17G25   30.21R
TETERBORO      CLOUDY    40  24  53 NW7       30.19S
CALDWELL       CLOUDY    40  23  50 NW7       30.21R
SOMERVILLE     CLOUDY    41  24  51 NW8       30.20S
ALLAIRE*       PTCLDY   N/A N/A N/A NW6       30.22R
TOMS RIVER*    CLOUDY    38  27  64 NW3       30.22F

$$
PAZ043-044-047-054-055-060>062-066>071-041100-
EASTERN PENNSYLVANIA

CITY           SKY/WX    TMP DP  RH WIND       PRES   REMARKS
PHILADELPHIA   CLOUDY    43  25  49 N6        30.23S
NORTH PHILA    CLOUDY    42  25  50 N7        30.24S
BLUE BELL*     CLOUDY    37  28  70 CALM      30.21F
DOYLESTOWN     CLOUDY    41  25  53 NW3       30.21S
QUAKERTOWN*    CLOUDY    39  27  60 N5        30.22S
PERKASIE*      CLOUDY    39  25  56 NW3       30.21F
POTTSTOWN      CLOUDY    41  24  51 N9        30.23F
LANCASTER      CLOUDY    41  33  73 NW6       30.23S
COATESVILLE    CLOUDY    39  32  75 N6        30.21F WCI  35
READING        CLOUDY    42  23  46 NW8       30.21F
ALLENTOWN      CLOUDY    41  25  53 NW5       30.22S
MOUNT POCONO   CLOUDY    31  23  72 NW8       30.14S WCI  23
HAZLETON       CLOUDY    36  25  64 NW7       30.19F WCI  30
LEHIGHTON        N/A     39  27  60 CALM      30.22S
WILKES BARRE   CLOUDY    36  28  73 N7        30.19S WCI  30

$$
DEZALL-MDZ008-012-015-019-020-041100-
DELAWARE AND EASTERN MARYLAND

CITY           SKY/WX    TMP DP  RH WIND       PRES   REMARKS
WILMINGTON     CLOUDY    43  32  65 NW6       30.24F
DOVER          CLOUDY    42  34  72 W8        30.22F
GEORGETOWN     PTCLDY    37  31  78 W3        30.24S
EASTON         CLEAR     38  30  72 N5        30.28S WCI  35
ABERDEEN       PTCLDY    37  30  75 W5        30.25S WCI  34
PATUXENT       CLEAR     37  27  67 W9        30.27R WCI  30
OCEAN CITY     MOCLDY    35  30  82 NW5       30.24S WCI  31
WALLOPS ISLAND PTCLDY    36  31  82 W6        30.26R WCI  31
CAMBRIDGE      CLEAR     37  32  81 NW5       30.25R WCI  34
SALISBURY      PTCLDY    34  30  85 W3        30.24S

$$
PAZ001-021-NYZ056-072-MDZ011-DCZ001-041100-
OTHER NEARBY LOCATIONS

CITY           SKY/WX    TMP DP  RH WIND       PRES   REMARKS
HARRISBURG     CLOUDY    41  33  73 N3        30.22F
STATE COLLEGE  CLOUDY    36  32  85 CALM      30.21F
WILLIAMSPORT   CLOUDY    41  25  53 N8        30.22F
BINGHAMTON     CLOUDY    30  25  81 NW5       30.16S WCI  25
NEW YORK CITY  CLOUDY    41  22  46 NW9G16    30.22R
BALTIMORE      MOCLDY    38  29  70 W8        30.25S WCI  32
WASHINGTON DC  MOCLDY    40  27  59 NW9       30.28R WCI  34

$$




USA.gov is the U.S. government's official web portal to all federal, state and local government web resources and services.